Winnemucca, NV

7:28 PM PDT on April 20, 2018 (GMT -0700)
Winnemucca Municipal

Weather History for KWMC - December, 2012

Change the Weather History Date:

Sunday, December 30, 2012

  Actual Average Record
Temperature  
Mean Temperature 10 °F 29 °F  
Max Temperature 25 °F 40 °F 62 °F (2011)
Min Temperature -5 °F 17 °F -17 °F (1990)
Degree Days  
Heating Degree Days 55 36  
Month to date heating degree days 1001 1063  
Since 1 July heating degree days 2273 2631  
Cooling Degree Days 0 0  
Month to date cooling degree days 0 0  
Year to date cooling degree days 681 541  
Moisture  
Dew Point 12 °F    
Average Humidity 83    
Maximum Humidity 92    
Minimum Humidity 74    
Precipitation  
Precipitation 0.05 in 0.03 in 0.71 in (1913)
Month to date precipitation 1.69 0.90  
Year to date precipitation 5.82 8.25  
Snow  
Snow 0.20 in 0.10 in 5.00 in (1891)
Month to date snowfall 13.5 5.1  
Since 1 July snowfall 14.8 8.6  
Snow Depth 7.00 in    
Sea Level Pressure  
Sea Level Pressure 30.12 in    
Wind  
Wind Speed 6 mph (NNW)    
Max Wind Speed 13 mph    
Max Gust Speed 15 mph    
Visibility 5 miles    
Events Fog , Snow    
T = Trace of Precipitation, MM = Missing Value Source: NWS Daily Summary

Daily Weather History Graph

Daily Weather History Graph

Search for Another Location

Airport or City:

Astronomy

Dec. 30, 2012 Rise Set
Actual Time 7:15 AM PST 4:32 PM PST
Civil Twilight 6:44 AM PST 5:03 PM PST
Nautical Twilight 6:10 AM PST 5:38 PM PST
Astronomical Twilight 5:36 AM PST 6:11 PM PST
Moon 7:09 PM PST (12/30) 8:26 AM PST (12/30)
Length of Visible Light 10h 19m
Length of Day
9h 17m
Waning Gibbous, 95% of the Moon is Illuminated
Dec 30
Waning Gibbous
Jan 4
Last Quarter
Jan 11
New
Jan 18
First Quarter
Jan 26
Full

Hourly Weather History & Observations

Time (PST) Temp. Windchill Dew Point Humidity Pressure Visibility Wind Dir Wind Speed Gust Speed Precip Events Conditions
12:05 AM 17.6 °F - 15.8 °F 93% 29.98 in 2.5 mi Calm Calm - 0.00 in Snow Light Snow
12:22 AM 17.6 °F - 17.6 °F 100% 29.98 in 1.5 mi Calm Calm - 0.01 in Snow Light Snow
12:31 AM 19.4 °F - 17.6 °F 93% 29.98 in 1.8 mi Calm Calm - 0.01 in Snow Light Snow
12:45 AM 19.4 °F - 17.6 °F 93% 29.99 in 1.0 mi Calm Calm - 0.01 in Snow Light Snow
12:56 AM 19.9 °F - 17.1 °F 89% 30.08 in 1.0 mi Calm Calm - 0.02 in Snow Light Snow
1:45 AM 19.4 °F - 17.6 °F 93% 30.00 in 2.0 mi Calm Calm - 0.01 in Snow Light Snow
1:56 AM 19.0 °F - 17.1 °F 92% 30.10 in 2.0 mi Calm Calm - 0.01 in Snow Light Snow
2:04 AM 19.4 °F - 17.6 °F 93% 30.00 in 1.5 mi Calm Calm - 0.01 in Snow Light Snow
2:19 AM 19.4 °F - 17.6 °F 93% 30.00 in 1.2 mi Calm Calm - 0.01 in Snow Light Snow
2:30 AM 19.4 °F - 17.6 °F 93% 30.00 in 1.8 mi Calm Calm - 0.01 in Snow Light Snow
2:37 AM 19.4 °F - 17.6 °F 93% 30.00 in 2.0 mi Calm Calm - 0.01 in Snow Light Snow
2:56 AM 18.0 °F - 16.0 °F 92% 30.11 in 3.0 mi Calm Calm - 0.02 in Snow Light Snow
3:48 AM 15.8 °F - 14.0 °F 93% 30.00 in 1.8 mi Calm Calm - 0.00 in   Mostly Cloudy
3:50 AM 14.0 °F - 12.2 °F 93% 30.00 in 0.8 mi Calm Calm - 0.00 in   Mostly Cloudy
3:56 AM 15.1 °F - 12.9 °F 91% 30.11 in 0.2 mi Calm Calm - 0.00 in Fog Light Freezing Fog
4:22 AM 12.2 °F - 10.4 °F 92% 29.99 in 0.2 mi Calm Calm - N/A Fog Light Freezing Fog
4:31 AM 10.4 °F - 8.6 °F 92% 30.00 in 0.2 mi Calm Calm - N/A Fog Light Freezing Fog
4:36 AM 10.4 °F 4.0 °F 8.6 °F 92% 30.00 in 0.2 mi NNW 3.5 mph - N/A Fog Light Freezing Fog
4:51 AM 10.4 °F 0.8 °F 8.6 °F 92% 30.00 in 0.2 mi North 5.8 mph - N/A Fog Light Freezing Fog
4:56 AM 10.9 °F 2.9 °F 9.0 °F 92% 30.13 in 0.2 mi North 4.6 mph - N/A Fog Light Freezing Fog
5:12 AM 15.8 °F 8.6 °F 10.4 °F 79% 30.01 in 1.0 mi NNE 4.6 mph - N/A   Overcast
5:15 AM 15.8 °F 10.2 °F 10.4 °F 79% 30.01 in 3.0 mi NNE 3.5 mph - N/A   Overcast
5:56 AM 17.1 °F 10.0 °F 12.9 °F 84% 30.13 in 4.0 mi NNE 4.6 mph - N/A   Overcast
6:07 AM 17.6 °F 9.3 °F 12.2 °F 79% 30.02 in 2.5 mi North 5.8 mph - N/A   Overcast
6:25 AM 15.8 °F 7.2 °F 12.2 °F 86% 30.03 in 3.0 mi NNW 5.8 mph - N/A   Overcast
6:37 AM 17.6 °F 12.3 °F 12.2 °F 79% 30.03 in 5.0 mi NW 3.5 mph - N/A   Overcast
6:53 AM 15.8 °F 7.2 °F 12.2 °F 86% 30.03 in 6.0 mi NW 5.8 mph - N/A   Overcast
6:56 AM 16.0 °F 7.4 °F 12.0 °F 84% 30.16 in 6.0 mi WNW 5.8 mph - N/A   Overcast
7:19 AM 15.8 °F 7.2 °F 10.4 °F 79% 30.04 in 2.0 mi NW 5.8 mph - 0.00 in Snow Light Snow
7:26 AM 15.8 °F 7.2 °F 10.4 °F 79% 30.04 in 1.8 mi NNW 5.8 mph - 0.00 in Snow Light Snow
7:35 AM 15.8 °F 7.2 °F 12.2 °F 86% 30.04 in 3.0 mi NNW 5.8 mph - 0.00 in Snow Light Snow
7:56 AM 18.0 °F 8.7 °F 12.9 °F 81% 30.18 in 7.0 mi NW 6.9 mph - 0.00 in   Overcast
8:51 AM 19.4 °F 12.8 °F 15.8 °F 86% 30.07 in 4.0 mi WNW 4.6 mph - 0.00 in   Overcast
8:56 AM 19.0 °F 11.1 °F 16.0 °F 88% 30.19 in 4.0 mi NW 5.8 mph - 0.00 in   Overcast
9:56 AM 19.9 °F 10.1 °F 15.1 °F 81% 30.21 in 10.0 mi NW 8.1 mph - N/A   Overcast
10:56 AM 21.0 °F 10.6 °F 15.1 °F 78% 30.21 in 10.0 mi NNW 9.2 mph - N/A   Overcast
11:56 AM 23.0 °F 17.0 °F 15.1 °F 72% 30.19 in 10.0 mi WNW 4.6 mph - N/A   Scattered Clouds
12:56 PM 23.0 °F 12.4 °F 16.0 °F 74% 30.18 in 10.0 mi NW 10.4 mph - N/A   Partly Cloudy
1:56 PM 21.9 °F 12.5 °F 15.1 °F 75% 30.20 in 10.0 mi NNW 8.1 mph - N/A   Scattered Clouds
2:56 PM 21.0 °F 10.6 °F 15.1 °F 78% 30.22 in 10.0 mi NNW 9.2 mph - N/A   Overcast
3:54 PM 19.4 °F 7.9 °F 12.2 °F 74% 30.11 in 10.0 mi NNW 10.4 mph - N/A   Overcast
3:56 PM 18.0 °F 7.7 °F 12.9 °F 81% 30.24 in 10.0 mi NNW 8.1 mph - N/A   Overcast
4:25 PM 15.8 °F 8.6 °F 10.4 °F 79% 30.13 in 10.0 mi NNW 4.6 mph - N/A   Overcast
4:56 PM 17.1 °F 5.0 °F 10.9 °F 77% 30.28 in 10.0 mi NW 10.4 mph - N/A   Overcast
5:56 PM 14.0 °F 3.9 °F 9.0 °F 80% 30.28 in 10.0 mi WNW 6.9 mph - N/A   Overcast
6:56 PM 14.0 °F 3.9 °F 9.0 °F 80% 30.30 in 10.0 mi WNW 6.9 mph - N/A   Overcast
7:56 PM 15.1 °F 2.5 °F 10.0 °F 80% 30.31 in 10.0 mi NNW 10.4 mph - N/A   Overcast
8:51 PM 10.4 °F 4.0 °F 6.8 °F 85% 30.18 in 10.0 mi Variable 3.5 mph - N/A   Overcast
8:56 PM 10.0 °F - 7.0 °F 87% 30.33 in 10.0 mi Calm Calm - N/A   Overcast
9:49 PM 3.2 °F - 1.4 °F 92% 30.20 in 10.0 mi Calm Calm - N/A   Scattered Clouds
9:56 PM 1.0 °F - -2.0 °F 87% 30.37 in 10.0 mi Calm Calm - N/A   Partly Cloudy
10:56 PM 1.0 °F - -2.0 °F 87% 30.37 in 10.0 mi Calm Calm - N/A   Clear
11:56 PM -4.0 °F -17.8 °F -7.1 °F 87% 30.39 in 10.0 mi SE 6.9 mph - N/A   Clear